Flag for Switzerland Weather past 2 weeks in Biel, Switzerland

Now
42 °F

Quite cool.


Feels Like: 42 °F
Forecast: 45 / 70 °F
Wind: 1 mph from Northeast

Location: Grenchen

Current Time: May 23, 2015 at 6:18:51 AM

Latest Report: May 23, 2015 at 4:00 AM


Visibility: N/A

Pressure: 30.14 "Hg

Humidity: 97%

Dew point: 42 °F

Location of BielLocation

Historic Weather in Biel — Graph

°F

Biel temperature yesterday

Maximum temperature yesterday: 62 °F (at 1:00 PM)
Minimum temperature yesterday: 38 °F (at 5:00 AM)
Average temperature yesterday: 50 °F

Past Weeks' High & Low Weather Summary

 TemperatureHumidityPressure
High83 °F (May 13, 5:00 PM)100% (May 9, 3:00 AM)30.41 "Hg (May 9, 3:00 AM)
Low38 °F (May 22, 5:00 AM)30% (May 13, 4:00 PM)29.73 "Hg (May 18, 8:00 PM)
Average57 °F72%30.11 "Hg
* Reported May 8 4:00 AM — May 23 4:00 AM, Biel, Weather by CustomWeather, © 2015

Note: Actual official high and low records may vary slightly from our data, if they occured in-between our weather recording intervals... More about our weather records

Advertising

Biel weather history for previous 24 hours

 ConditionsComfort  
Time TempWeatherWind HumidityBarometerVisibility
4:00 AM
Sat, May 23
42 °FQuite cool.1 mph97%30.14 "HgN/A
3:00 AM43 °FQuite cool.No wind96%30.15 "HgN/A
2:00 AM46 °FCool.No wind92%30.16 "HgN/A
1:00 AM46 °FCool.2 mph93%30.18 "HgN/A
12:00 AM46 °FCool.2 mph96%30.19 "HgN/A
11:00 PM
Fri, May 22
47 °FCool.3 mph93%30.19 "HgN/A
10:00 PM51 °FCool.1 mph88%30.18 "HgN/A
9:00 PM54 °FCool.2 mph78%30.17 "HgN/A
8:00 PM56 °FCool.3 mph77%30.16 "HgN/A
7:00 PM58 °FCool.5 mph65%30.16 "HgN/A
6:00 PM59 °FCool.2 mph63%30.16 "HgN/A
5:00 PM56 °FCool.7 mph66%30.18 "HgN/A
4:00 PM57 °FCool.6 mph60%30.19 "HgN/A
3:00 PM58 °FRefreshingly cool.9 mph55%30.20 "HgN/A
2:00 PM58 °FRefreshingly cool.13 mph51%30.22 "HgN/A
1:00 PM62 °FMild.15 mph45%30.21 "HgN/A
12:00 PM59 °FRefreshingly cool.13 mph51%30.24 "HgN/A
11:00 AM56 °FRefreshingly cool.13 mph58%30.26 "HgN/A
10:00 AM54 °FCool.10 mph64%30.27 "HgN/A
9:00 AM50 °FCool.8 mph77%30.29 "HgN/A
8:00 AM46 °FCool.6 mph91%30.32 "HgN/A
7:00 AM42 °FQuite cool.6 mph98%30.33 "HgN/A
6:00 AM39 °FChilly.5 mph99%30.33 "HgN/A
Weather by CustomWeather, © 2015

See weather overviewHow to use our weather pages